Location: *
(51.0333°S, 178.4667°E)
Time: 02:47:28
(UTC+00:00)

Cosmos 1908 Rocket - Pass Details

Date: 15 November 2019
Orbit: 606 x 632 km, 82.5° (Epoch: 15 December)

Event Time Altitude Azimuth Distance (km) Brightness Sun altitude
Exits shadow 10:42:20 27° 325° (NW) 1,205 4.7 -18.9°
Maximum altitude 10:44:34 57° 256° (WSW) 740 4.0 -19.0°
Drops below altitude 10° 10:48:57 10° 177° (S) 2,006 7.2 -19.2°
Sets 10:51:13 0° 172° (S) 2,916 8.2 -19.3°
